User: anonymous   Login
Location: Cluny
(50.9333°N, 112.8167°W)
Time: 07:29:19
(UTC-07:00)
Language:

Cosmos 1743 Rocket - Orbit

View from above orbital plane
View from above orbital plane
View from above satellite
View from above satellite

Ground track
Ground track

The orbit data is extracted from the following two-line orbital elements,

1 16720U 86034B   16339.84426447  .00000096  00000-0  87119-5 0  9994
2 16720  82.5557  62.6895 0020866  26.7713 112.2461 14.83265006650456
Epoch (UTC): 04 December 2016 20:15:44
Eccentricity: 0.0020866
inclination: 82.5557°
perigee height: 604 km
apogee height: 633 km
right ascension of ascending node: 62.6895°
argument of perigee: 26.7713°
revolutions per day: 14.83265006
mean anomaly at epoch: 112.2461°
orbit number at epoch: 65045

The dashed part of the orbit path shows where the satellite is in the earth's shadow,  

DLR